TimeCDT,TemperatureF,Dew PointF,Humidity,Sea Level PressureIn,VisibilityMPH,Wind Direction,Wind SpeedMPH,Gust SpeedMPH,PrecipitationIn,Events,Conditions,WindDirDegrees,DateUTC
1:55 AM,80.6,73.4,79,30.00,10.0,Calm,Calm,-,N/A,,Scattered Clouds,0,2013-08-30 06:55:00
2:50 AM,80.6,73.4,79,30.00,10.0,Calm,Calm,-,N/A,,Clear,0,2013-08-30 07:50:00
4:50 AM,80.6,75.2,84,30.00,10.0,Calm,Calm,-,N/A,,Scattered Clouds,0,2013-08-30 09:50:00
5:50 AM,78.8,75.2,89,30.00,10.0,Calm,Calm,-,N/A,,Scattered Clouds,0,2013-08-30 10:50:00
6:50 AM,78.8,75.2,89,30.02,10.0,Calm,Calm,-,N/A,,Scattered Clouds,0,2013-08-30 11:50:00
7:50 AM,80.6,77.0,89,30.03,5.0,Calm,Calm,-,N/A,,Haze,0,2013-08-30 12:50:00
8:50 AM,84.2,78.8,84,30.04,10.0,SW,4.6,-,N/A,,Mostly Cloudy,230,2013-08-30 13:50:00
9:50 AM,86.0,78.8,79,30.04,7.0,SSW,3.5,-,N/A,,Mostly Cloudy,210,2013-08-30 14:50:00
10:50 AM,86.0,77.0,74,30.04,7.0,Calm,Calm,-,N/A,,Mostly Cloudy,0,2013-08-30 15:50:00
11:50 AM,91.4,78.8,66,30.03,7.0,SW,4.6,-,N/A,,Mostly Cloudy,220,2013-08-30 16:50:00
12:50 PM,96.8,95.0,95,30.00,7.0,SSE,3.5,-,N/A,,Mostly Cloudy,150,2013-08-30 17:50:00
1:50 PM,96.8,75.2,50,29.98,7.0,SE,5.8,-,N/A,,Mostly Cloudy,130,2013-08-30 18:50:00
2:50 PM,100.4,73.4,42,29.96,7.0,ESE,10.4,-,N/A,,Mostly Cloudy,110,2013-08-30 19:50:00
3:50 PM,98.6,73.4,44,29.96,7.0,SSE,6.9,-,N/A,,Mostly Cloudy,150,2013-08-30 20:50:00
4:50 PM,95.0,73.4,49,29.93,8.0,SSE,8.1,-,N/A,,Scattered Clouds,160,2013-08-30 21:50:00
5:50 PM,95.0,73.4,49,29.92,10.0,South,10.4,-,N/A,,Partly Cloudy,170,2013-08-30 22:50:00
6:50 PM,93.2,73.4,52,29.92,10.0,South,10.4,-,N/A,,Partly Cloudy,170,2013-08-30 23:50:00
7:50 PM,86.0,75.2,70,29.93,10.0,South,10.4,-,N/A,,Clear,170,2013-08-31 00:50:00
8:50 PM,84.2,71.6,66,29.94,10.0,South,5.8,-,N/A,,Clear,170,2013-08-31 01:50:00
9:50 PM,82.4,73.4,74,29.94,10.0,Calm,Calm,-,N/A,,Clear,0,2013-08-31 02:50:00
10:50 PM,80.6,73.4,79,29.94,10.0,South,3.5,-,N/A,,Clear,170,2013-08-31 03:50:00
11:50 PM,80.6,73.4,79,29.92,10.0,Calm,Calm,-,N/A,,Clear,0,2013-08-31 04:50:00